| time (UTC) | temp F | wind direction | speed knots | gust knots | rain 1hr in | rain 24hr in | rain mn in | humidity % | barometer mb |
| 20260510034003 | 53 | 197 | 2.6 | 2.6 | 0.11 | 0.55 | 0.55 | 100 | 1011.2 |
| 20260510033503 | 53 | 196 | 1.7 | 4.3 | 0.12 | 0.55 | 0.55 | 100 | 1011.4 |
| 20260510033003 | 53 | 202 | 2.6 | 4.3 | 0.14 | 0.55 | 0.55 | 100 | 1011.6 |
| 20260510032503 | 53 | 192 | 2.6 | 4.3 | 0.16 | 0.55 | 0.55 | 100 | 1011.4 |
| 20260510032003 | 53 | 193 | 3.5 | 6.1 | 0.19 | 0.56 | 0.55 | 100 | 1011.3 |
| 20260510031504 | 53 | 183 | 3.5 | 6.1 | 0.23 | 0.56 | 0.55 | 100 | 1011.4 |
| 20260510031003 | 53 | 183 | 5.2 | 7.0 | 0.37 | 0.56 | 0.55 | 100 | 1011.5 |
| 20260510030503 | 53 | 181 | 4.3 | 10.4 | 0.39 | 0.55 | 0.54 | 100 | 1011.6 |
| 20260510030003 | 53 | 183 | 7.0 | 12.2 | 0.39 | 0.54 | 0.53 | 100 | 1011.4 |
| 20260510025503 | 53 | 187 | 6.1 | 8.7 | 0.39 | 0.52 | 0.51 | 100 | 1011.8 |
| 20260510025003 | 53 | 170 | 2.6 | 4.3 | 0.39 | 0.50 | 0.48 | 100 | 1012.1 |
| 20260510024503 | 53 | 147 | 0.0 | 1.7 | 0.37 | 0.48 | 0.46 | 100 | 1012.3 |
| 20260510024003 | 53 | 116 | 2.6 | 4.3 | 0.34 | 0.46 | 0.44 | 100 | 1012.2 |
| 20260510023717 | 53 | 239 | 1.7 | 4.3 | 0.33 | 0.45 | 0.43 | 100 | 1012.4 |
| 20260510023003 | 53 | 304 | 1.7 | 7.0 | 0.31 | 0.43 | 0.41 | 100 | 1012.9 |
| 20260510022503 | 53 | 351 | 5.2 | 8.7 | 0.29 | 0.42 | 0.39 | 100 | 1012.5 |
| 20260510022003 | 53 | 2 | 7.0 | 13.0 | 0.26 | 0.39 | 0.36 | 100 | 1012.7 |
| 20260510021717 | 53 | 358 | 5.2 | 12.2 | 0.24 | 0.37 | 0.34 | 97 | 1012.6 |
| 20260510021003 | 53 | 354 | 7.8 | 10.4 | 0.08 | 0.22 | 0.18 | 96 | 1012.6 |
| 20260510020717 | 54 | 349 | 4.3 | 7.0 | 0.05 | 0.20 | 0.15 | 95 | 1012.3 |
| 20260510020216 | 54 | 5 | 7.0 | 13.0 | 0.04 | 0.18 | 0.13 | 94 | 1012.5 |
| 20260510015503 | 55 | 358 | 10.4 | 20.9 | 0.02 | 0.18 | 0.12 | 88 | 1012.1 |
| 20260510015216 | 56 | 338 | 8.7 | 16.5 | 0.00 | 0.15 | 0.10 | 84 | 1012.0 |
| 20260510014503 | 60 | 340 | 13.0 | 18.2 | 0.00 | 0.15 | 0.10 | 75 | 1011.7 |
| 20260510014003 | 62 | 273 | 6.1 | 8.7 | 0.00 | 0.15 | 0.10 | 69 | 1011.2 |
| 20260510013504 | 62 | 208 | 5.2 | 10.4 | 0.00 | 0.15 | 0.10 | 69 | 1010.0 |
| 20260510013003 | 62 | 215 | 7.0 | 12.2 | 0.00 | 0.15 | 0.10 | 68 | 1009.8 |
| 20260510012503 | 62 | 197 | 5.2 | 8.7 | 0.00 | 0.15 | 0.10 | 69 | 1009.7 |
| 20260510012003 | 62 | 197 | 7.8 | 10.4 | 0.00 | 0.15 | 0.10 | 68 | 1009.6 |
| 20260510011717 | 62 | 201 | 7.0 | 12.2 | 0.00 | 0.15 | 0.10 | 69 | 1009.5 |
| 20260510011003 | 62 | 207 | 7.0 | 12.2 | 0.00 | 0.15 | 0.10 | 68 | 1009.5 |
| 20260510010503 | 62 | 227 | 7.0 | 8.7 | 0.00 | 0.15 | 0.10 | 68 | 1009.3 |
| 20260510010003 | 62 | 205 | 7.8 | 12.2 | 0.00 | 0.16 | 0.10 | 67 | 1009.6 |
| 20260510005503 | 62 | 205 | 7.0 | 10.4 | 0.00 | 0.16 | 0.10 | 67 | 1009.5 |
| 20260510005003 | 62 | 204 | 7.0 | 8.7 | 0.00 | 0.16 | 0.10 | 67 | 1009.5 |
| 20260510004503 | 63 | 210 | 6.1 | 13.0 | 0.00 | 0.16 | 0.10 | 67 | 1009.6 |
| 20260510004003 | 63 | 219 | 10.4 | 14.8 | 0.00 | 0.16 | 0.10 | 66 | 1009.5 |
| 20260510003503 | 62 | 207 | 6.1 | 12.2 | 0.00 | 0.16 | 0.10 | 67 | 1009.7 |
| 20260510003003 | 63 | 194 | 5.2 | 8.7 | 0.00 | 0.16 | 0.10 | 66 | 1009.6 |
| 20260510002503 | 63 | 202 | 6.1 | 8.7 | 0.00 | 0.16 | 0.10 | 66 | 1009.3 |
| 20260510002003 | 63 | 211 | 9.6 | 10.4 | 0.00 | 0.16 | 0.10 | 65 | 1009.3 |
| 20260510001717 | 63 | 216 | 6.1 | 10.4 | 0.00 | 0.16 | 0.10 | 66 | 1009.1 |
| 20260510001004 | 63 | 209 | 7.8 | 13.0 | 0.00 | 0.16 | 0.10 | 64 | 1009.1 |
| 20260510000503 | 64 | 209 | 5.2 | 12.2 | 0.00 | 0.16 | 0.10 | 65 | 1009.2 |
| 20260510000219 | 64 | 215 | 7.0 | 10.4 | 0.00 | 0.16 | 0.10 | 64 | 1009.1 |
| 20260509235503 | 64 | 215 | 9.6 | 16.5 | 0.00 | 0.16 | 0.10 | 63 | 1009.0 |
| 20260509235218 | 64 | 223 | 10.4 | 19.1 | 0.00 | 0.16 | 0.10 | 63 | 1008.9 |
| 20260509234503 | 64 | 207 | 10.4 | 20.9 | 0.00 | 0.16 | 0.10 | 63 | 1008.9 |
| 20260509234003 | 64 | 218 | 7.8 | 22.6 | 0.00 | 0.16 | 0.10 | 63 | 1008.9 |
| 20260509233503 | 64 | 215 | 8.7 | 13.0 | 0.00 | 0.16 | 0.10 | 63 | 1008.8 |
| 20260509233004 | 65 | 222 | 9.6 | 16.5 | 0.00 | 0.16 | 0.10 | 63 | 1008.8 |
| 20260509232503 | 64 | 197 | 7.0 | 14.8 | 0.00 | 0.16 | 0.10 | 63 | 1009.0 |
| 20260509232217 | 65 | 201 | 9.6 | 14.8 | 0.00 | 0.16 | 0.10 | 63 | 1009.0 |
| 20260509231503 | 65 | 217 | 9.6 | 20.9 | 0.00 | 0.16 | 0.10 | 62 | 1008.8 |
| 20260509231003 | 65 | 221 | 13.9 | 20.9 | 0.00 | 0.16 | 0.10 | 62 | 1008.8 |
| 20260509230716 | 65 | 216 | 5.2 | 12.2 | 0.00 | 0.16 | 0.10 | 62 | 1008.8 |
| 20260509230217 | 65 | 217 | 9.6 | 20.9 | 0.00 | 0.16 | 0.10 | 62 | 1008.6 |
| 20260509225503 | 65 | 217 | 13.0 | 14.8 | 0.00 | 0.16 | 0.10 | 62 | 1008.6 |
| 20260509225003 | 65 | 196 | 10.4 | 20.9 | 0.00 | 0.16 | 0.10 | 62 | 1008.5 |
| 20260509224503 | 65 | 209 | 12.2 | 25.2 | 0.00 | 0.16 | 0.10 | 62 | 1008.5 |
| 20260509224003 | 65 | 196 | 17.4 | 23.5 | 0.00 | 0.16 | 0.10 | 62 | 1008.6 |
| 20260509223503 | 65 | 201 | 11.3 | 22.6 | 0.00 | 0.16 | 0.10 | 62 | 1008.3 |
| 20260509223003 | 66 | 217 | 6.1 | 12.2 | 0.00 | 0.16 | 0.10 | 61 | 1008.4 |
| 20260509222718 | 66 | 215 | 6.1 | 12.2 | 0.00 | 0.16 | 0.10 | 60 | 1008.3 |
| 20260509222003 | 66 | 215 | 9.6 | 14.8 | 0.00 | 0.16 | 0.10 | 61 | 1008.3 |
| 20260509221503 | 66 | 217 | 10.4 | 22.6 | 0.00 | 0.16 | 0.10 | 61 | 1008.4 |
| 20260509221217 | 66 | 191 | 10.4 | 20.9 | 0.00 | 0.16 | 0.10 | 61 | 1008.4 |
| 20260509220503 | 65 | 216 | 9.6 | 18.2 | 0.00 | 0.16 | 0.10 | 62 | 1008.7 |
| 20260509220003 | 65 | 218 | 11.3 | 19.1 | 0.00 | 0.16 | 0.10 | 63 | 1008.7 |
| 20260509215503 | 65 | 214 | 7.8 | 16.5 | 0.00 | 0.16 | 0.10 | 62 | 1008.9 |
| 20260509215003 | 65 | 196 | 7.0 | 13.0 | 0.00 | 0.16 | 0.10 | 63 | 1008.7 |
| 20260509214503 | 65 | 216 | 12.2 | 20.9 | 0.00 | 0.16 | 0.10 | 63 | 1009.0 |
| 20260509214219 | 65 | 206 | 10.4 | 20.9 | 0.00 | 0.16 | 0.10 | 63 | 1008.9 |
| 20260509213504 | 66 | 209 | 7.8 | 13.0 | 0.00 | 0.16 | 0.10 | 62 | 1008.7 |
| 20260509213003 | 65 | 191 | 10.4 | 14.8 | 0.00 | 0.16 | 0.10 | 63 | 1008.9 |
| 20260509212503 | 65 | 211 | 14.8 | 20.9 | 0.00 | 0.16 | 0.10 | 64 | 1009.1 |
| 20260509212217 | 65 | 203 | 13.9 | 25.2 | 0.00 | 0.16 | 0.10 | 64 | 1009.0 |
| 20260509211503 | 66 | 211 | 10.4 | 14.8 | 0.00 | 0.16 | 0.10 | 63 | 1009.1 |
| 20260509211003 | 65 | 193 | 11.3 | 16.5 | 0.00 | 0.16 | 0.10 | 64 | 1009.0 |
| 20260509210503 | 65 | 209 | 10.4 | 14.8 | 0.00 | 0.16 | 0.10 | 64 | 1009.1 |
| 20260509210218 | 65 | 223 | 6.1 | 10.4 | 0.00 | 0.16 | 0.10 | 64 | 1009.1 |
| 20260509205503 | 64 | 219 | 13.0 | 22.6 | 0.00 | 0.16 | 0.10 | 66 | 1009.1 |
| 20260509205003 | 65 | 219 | 9.6 | 14.8 | 0.00 | 0.16 | 0.10 | 65 | 1009.3 |
| 20260509204504 | 65 | 193 | 7.0 | 14.8 | 0.00 | 0.16 | 0.10 | 67 | 1009.2 |
| 20260509204003 | 65 | 217 | 11.3 | 14.8 | 0.00 | 0.16 | 0.10 | 66 | 1009.2 |
| 20260509203503 | 64 | 200 | 13.9 | 20.9 | 0.00 | 0.16 | 0.10 | 67 | 1009.6 |
| 20260509203003 | 63 | 211 | 9.6 | 14.8 | 0.00 | 0.16 | 0.10 | 70 | 1009.5 |
| 20260509202504 | 63 | 199 | 7.8 | 22.6 | 0.00 | 0.16 | 0.10 | 71 | 1009.6 |
| 20260509202004 | 64 | 214 | 12.2 | 14.8 | 0.00 | 0.16 | 0.10 | 69 | 1009.6 |
| 20260509201503 | 63 | 242 | 9.6 | 19.1 | 0.00 | 0.16 | 0.10 | 69 | 1009.8 |
| 20260509201003 | 63 | 221 | 10.4 | 14.8 | 0.00 | 0.16 | 0.10 | 69 | 1009.8 |
| 20260509200503 | 63 | 238 | 7.8 | 12.2 | 0.00 | 0.16 | 0.10 | 70 | 1009.8 |
| 20260509200003 | 63 | 217 | 7.0 | 14.8 | 0.00 | 0.16 | 0.10 | 69 | 1009.8 |
| 20260509195717 | 63 | 207 | 11.3 | 14.8 | 0.00 | 0.16 | 0.10 | 70 | 1009.8 |
| 20260509195003 | 63 | 221 | 14.8 | 19.1 | 0.00 | 0.16 | 0.10 | 69 | 1010.0 |
| 20260509194503 | 63 | 248 | 9.6 | 16.5 | 0.00 | 0.16 | 0.10 | 70 | 1009.9 |
| 20260509194003 | 63 | 225 | 10.4 | 20.9 | 0.00 | 0.16 | 0.10 | 70 | 1009.8 |
| 20260509193503 | 63 | 227 | 7.8 | 20.9 | 0.00 | 0.16 | 0.10 | 70 | 1010.0 |
| 20260509193218 | 63 | 221 | 10.4 | 20.9 | 0.00 | 0.16 | 0.10 | 72 | 1009.9 |
| 20260509192503 | 62 | 227 | 10.4 | 20.9 | 0.00 | 0.17 | 0.10 | 72 | 1010.0 |
| 20260509192218 | 63 | 227 | 6.1 | 14.8 | 0.00 | 0.17 | 0.10 | 71 | 1010.3 |
| 20260509191503 | 62 | 223 | 9.6 | 13.0 | 0.00 | 0.17 | 0.10 | 73 | 1010.0 |
| 20260509191003 | 62 | 223 | 11.3 | 13.0 | 0.00 | 0.17 | 0.10 | 74 | 1010.3 |
| 20260509190719 | 62 | 209 | 10.4 | 13.0 | 0.00 | 0.17 | 0.10 | 74 | 1010.4 |
| 20260509190003 | 62 | 216 | 12.2 | 16.5 | 0.00 | 0.17 | 0.10 | 74 | 1010.4 |
| 20260509185503 | 61 | 195 | 5.2 | 12.2 | 0.00 | 0.17 | 0.10 | 77 | 1010.5 |
| 20260509185218 | 61 | 195 | 6.1 | 13.0 | 0.00 | 0.17 | 0.10 | 77 | 1010.5 |
| 20260509184503 | 61 | 212 | 9.6 | 22.6 | 0.00 | 0.17 | 0.10 | 76 | 1010.5 |
| 20260509184003 | 60 | 228 | 12.2 | 16.5 | 0.00 | 0.17 | 0.10 | 77 | 1010.6 |
| 20260509183503 | 60 | 225 | 11.3 | 19.1 | 0.00 | 0.17 | 0.10 | 77 | 1010.7 |
| 20260509183003 | 60 | 213 | 14.8 | 20.9 | 0.00 | 0.17 | 0.10 | 77 | 1010.7 |
| 20260509182503 | 60 | 209 | 13.0 | 18.2 | 0.00 | 0.17 | 0.10 | 78 | 1010.7 |
| 20260509182003 | 60 | 208 | 8.7 | 14.8 | 0.00 | 0.17 | 0.10 | 78 | 1010.8 |
| 20260509181503 | 59 | 214 | 14.8 | 22.6 | 0.00 | 0.17 | 0.10 | 80 | 1010.6 |
| 20260509181003 | 59 | 200 | 14.8 | 20.9 | 0.00 | 0.17 | 0.10 | 79 | 1010.8 |
| 20260509180503 | 60 | 209 | 12.2 | 22.6 | 0.00 | 0.17 | 0.10 | 80 | 1010.8 |
| 20260509180003 | 60 | 221 | 13.0 | 20.9 | 0.00 | 0.17 | 0.10 | 78 | 1010.7 |
| 20260509175503 | 59 | 230 | 12.2 | 14.8 | 0.00 | 0.17 | 0.10 | 79 | 1010.8 |
| 20260509175217 | 59 | 259 | 6.1 | 19.1 | 0.00 | 0.17 | 0.10 | 79 | 1010.8 |
| 20260509174503 | 59 | 222 | 9.6 | 14.8 | 0.00 | 0.17 | 0.10 | 78 | 1010.8 |
| 20260509174217 | 59 | 204 | 5.2 | 12.2 | 0.00 | 0.17 | 0.10 | 79 | 1010.8 |
| 20260509173503 | 59 | 232 | 10.4 | 16.5 | 0.00 | 0.17 | 0.10 | 79 | 1010.9 |
| 20260509173003 | 59 | 237 | 9.6 | 16.5 | 0.00 | 0.17 | 0.10 | 80 | 1010.9 |
| 20260509172718 | 59 | 247 | 10.4 | 16.5 | 0.00 | 0.17 | 0.10 | 80 | 1010.8 |
| 20260509172003 | 60 | 222 | 7.8 | 13.0 | 0.00 | 0.17 | 0.10 | 80 | 1010.9 |
| 20260509171503 | 59 | 221 | 11.3 | 18.2 | 0.00 | 0.17 | 0.10 | 81 | 1010.6 |
| 20260509171003 | 58 | 221 | 9.6 | 16.5 | 0.00 | 0.17 | 0.10 | 81 | 1010.5 |
| 20260509170503 | 59 | 244 | 11.3 | 19.1 | 0.00 | 0.17 | 0.10 | 82 | 1010.6 |
| 20260509170003 | 60 | 194 | 10.4 | 16.5 | 0.00 | 0.17 | 0.10 | 80 | 1010.6 |
| 20260509165503 | 59 | 224 | 10.4 | 18.2 | 0.00 | 0.17 | 0.10 | 83 | 1010.7 |
| 20260509165003 | 58 | 211 | 7.8 | 13.0 | 0.00 | 0.17 | 0.10 | 85 | 1010.7 |
| 20260509164503 | 58 | 212 | 8.7 | 14.8 | 0.00 | 0.17 | 0.10 | 85 | 1010.5 |
| 20260509164003 | 58 | 191 | 5.2 | 12.2 | 0.00 | 0.17 | 0.10 | 85 | 1010.4 |
| 20260509163503 | 58 | 212 | 8.7 | 12.2 | 0.00 | 0.17 | 0.10 | 85 | 1010.5 |
| 20260509163217 | 58 | 224 | 8.7 | 14.8 | 0.00 | 0.17 | 0.10 | 85 | 1010.5 |
| 20260509162503 | 58 | 210 | 10.4 | 14.8 | 0.00 | 0.17 | 0.10 | 86 | 1010.5 |
| 20260509162003 | 58 | 167 | 11.3 | 18.2 | 0.00 | 0.17 | 0.10 | 87 | 1010.4 |
| 20260509161503 | 57 | 231 | 5.2 | 13.0 | 0.00 | 0.17 | 0.10 | 88 | 1010.4 |
| 20260509161217 | 57 | 216 | 6.1 | 13.0 | 0.00 | 0.17 | 0.10 | 88 | 1010.4 |
| 20260509160504 | 57 | 204 | 13.0 | 19.1 | 0.00 | 0.17 | 0.10 | 88 | 1010.4 |
| 20260509160003 | 57 | 212 | 9.6 | 18.2 | 0.00 | 0.17 | 0.10 | 87 | 1010.6 |
| 20260509155503 | 57 | 206 | 6.1 | 14.8 | 0.00 | 0.17 | 0.10 | 91 | 1010.3 |
| 20260509155003 | 56 | 202 | 13.0 | 18.2 | 0.00 | 0.17 | 0.10 | 91 | 1010.3 |
| 20260509154503 | 56 | 188 | 10.4 | 13.0 | 0.00 | 0.17 | 0.10 | 92 | 1010.4 |
| 20260509154003 | 55 | 190 | 7.8 | 12.2 | 0.00 | 0.17 | 0.10 | 95 | 1010.3 |
| 20260509153503 | 55 | 179 | 9.6 | 12.2 | 0.00 | 0.17 | 0.10 | 96 | 1010.4 |
| 20260509153003 | 54 | 199 | 8.7 | 10.4 | 0.00 | 0.17 | 0.10 | 100 | 1010.3 |
| 20260509152503 | 54 | 194 | 6.1 | 8.7 | 0.00 | 0.17 | 0.10 | 100 | 1010.5 |
| 20260509152004 | 52 | 224 | 5.2 | 12.2 | 0.00 | 0.17 | 0.10 | 100 | 1010.6 |
| 20260509151717 | 52 | 226 | 6.1 | 7.0 | 0.00 | 0.17 | 0.10 | 100 | 1010.7 |
| 20260509151216 | 52 | 232 | 4.3 | 6.1 | 0.00 | 0.17 | 0.10 | 100 | 1010.7 |
| 20260509150504 | 52 | 194 | 4.3 | 7.0 | 0.01 | 0.17 | 0.10 | 100 | 1010.6 |
| 20260509150003 | 52 | 218 | 3.5 | 8.7 | 0.01 | 0.17 | 0.10 | 100 | 1010.5 |
| 20260509145503 | 52 | 203 | 6.1 | 12.2 | 0.01 | 0.17 | 0.10 | 100 | 1010.6 |
| 20260509145003 | 52 | 209 | 5.2 | 10.4 | 0.01 | 0.17 | 0.10 | 100 | 1010.4 |
| 20260509144503 | 52 | 218 | 5.2 | 8.7 | 0.01 | 0.17 | 0.10 | 100 | 1010.7 |
| 20260509144003 | 52 | 214 | 7.0 | 8.7 | 0.01 | 0.17 | 0.10 | 100 | 1010.6 |
| 20260509143503 | 52 | 220 | 8.7 | 12.2 | 0.01 | 0.17 | 0.10 | 100 | 1010.7 |
| 20260509143003 | 52 | 197 | 7.0 | 13.0 | 0.01 | 0.17 | 0.10 | 100 | 1010.5 |
| 20260509142503 | 52 | 193 | 7.0 | 8.7 | 0.01 | 0.17 | 0.10 | 100 | 1010.5 |
| 20260509142218 | 52 | 198 | 5.2 | 7.0 | 0.01 | 0.17 | 0.10 | 100 | 1010.5 |
| 20260509141503 | 51 | 196 | 3.5 | 8.7 | 0.01 | 0.17 | 0.10 | 100 | 1010.5 |
| 20260509141003 | 51 | 207 | 5.2 | 8.7 | 0.01 | 0.17 | 0.10 | 100 | 1010.7 |
| 20260509140503 | 51 | 204 | 5.2 | 8.7 | 0.00 | 0.16 | 0.09 | 100 | 1010.6 |
| 20260509140004 | 51 | 200 | 6.1 | 8.7 | 0.00 | 0.16 | 0.09 | 100 | 1010.7 |
| 20260509135503 | 51 | 198 | 6.1 | 10.4 | 0.00 | 0.16 | 0.09 | 100 | 1010.8 |
| 20260509135003 | 51 | 204 | 7.0 | 10.4 | 0.00 | 0.16 | 0.09 | 100 | 1010.9 |
| 20260509134717 | 51 | 202 | 7.8 | 10.4 | 0.01 | 0.16 | 0.09 | 100 | 1010.7 |
| 20260509134218 | 51 | 205 | 3.5 | 10.4 | 0.01 | 0.16 | 0.09 | 100 | 1010.6 |
| 20260509133503 | 51 | 210 | 8.7 | 13.0 | 0.01 | 0.16 | 0.09 | 100 | 1010.6 |
| 20260509133004 | 51 | 205 | 3.5 | 12.2 | 0.02 | 0.16 | 0.09 | 100 | 1010.7 |
| 20260509132504 | 51 | 206 | 6.1 | 8.7 | 0.02 | 0.16 | 0.09 | 100 | 1010.7 |
| 20260509132218 | 50 | 206 | 6.1 | 8.7 | 0.02 | 0.16 | 0.09 | 100 | 1010.8 |
| 20260509131503 | 50 | 203 | 6.1 | 12.2 | 0.02 | 0.16 | 0.09 | 100 | 1010.7 |
| 20260509131003 | 50 | 200 | 7.0 | 10.4 | 0.04 | 0.16 | 0.09 | 100 | 1010.7 |
| 20260509130503 | 50 | 211 | 5.2 | 8.7 | 0.04 | 0.16 | 0.09 | 100 | 1010.7 |
| 20260509130003 | 50 | 211 | 6.1 | 8.7 | 0.04 | 0.16 | 0.09 | 100 | 1010.8 |
| 20260509125503 | 50 | 207 | 6.1 | 13.0 | 0.04 | 0.16 | 0.09 | 100 | 1010.9 |
| 20260509125003 | 50 | 213 | 7.0 | 10.4 | 0.04 | 0.16 | 0.09 | 100 | 1010.8 |
| 20260509124503 | 50 | 200 | 5.2 | 10.4 | 0.04 | 0.15 | 0.08 | 100 | 1010.8 |
| 20260509124003 | 50 | 195 | 6.1 | 8.7 | 0.04 | 0.15 | 0.08 | 100 | 1011.0 |
| 20260509123503 | 50 | 200 | 5.2 | 10.4 | 0.04 | 0.15 | 0.08 | 100 | 1010.7 |
| 20260509123003 | 50 | 203 | 7.8 | 10.4 | 0.03 | 0.14 | 0.07 | 100 | 1010.9 |
| 20260509122503 | 50 | 206 | 5.2 | 8.7 | 0.03 | 0.14 | 0.07 | 100 | 1011.0 |
| 20260509122004 | 50 | 208 | 5.2 | 10.4 | 0.04 | 0.14 | 0.07 | 100 | 1010.9 |
| 20260509121504 | 50 | 200 | 9.6 | 10.4 | 0.04 | 0.14 | 0.07 | 100 | 1010.9 |
| 20260509121003 | 50 | 211 | 6.1 | 8.7 | 0.04 | 0.13 | 0.05 | 100 | 1011.1 |
| 20260509120503 | 50 | 204 | 6.1 | 8.7 | 0.04 | 0.13 | 0.05 | 100 | 1010.8 |
| 20260509120217 | 50 | 199 | 6.1 | 10.4 | 0.04 | 0.13 | 0.05 | 100 | 1011.0 |
| 20260509115503 | 50 | 203 | 6.1 | 8.7 | 0.04 | 0.13 | 0.05 | 100 | 1011.1 |
| 20260509115004 | 50 | 202 | 5.2 | 8.7 | 0.04 | 0.13 | 0.05 | 100 | 1010.9 |
| 20260509114718 | 50 | 213 | 5.2 | 8.7 | 0.03 | 0.12 | 0.04 | 100 | 1010.8 |
| 20260509114217 | 50 | 202 | 5.2 | 10.4 | 0.03 | 0.12 | 0.04 | 100 | 1010.9 |
| 20260509113503 | 50 | 200 | 7.0 | 10.4 | 0.02 | 0.11 | 0.04 | 100 | 1011.0 |
| 20260509113003 | 50 | 214 | 6.1 | 10.4 | 0.02 | 0.11 | 0.04 | 100 | 1010.8 |
| 20260509112503 | 50 | 196 | 7.0 | 12.2 | 0.02 | 0.11 | 0.04 | 100 | 1010.7 |
| 20260509112003 | 50 | 187 | 3.5 | 8.7 | 0.01 | 0.10 | 0.02 | 100 | 1010.8 |
| 20260509111503 | 50 | 203 | 3.5 | 6.1 | 0.01 | 0.10 | 0.02 | 100 | 1010.7 |
| 20260509111217 | 50 | 201 | 4.3 | 8.7 | 0.01 | 0.10 | 0.02 | 100 | 1010.7 |
| 20260509110503 | 50 | 198 | 4.3 | 8.7 | 0.00 | 0.09 | 0.01 | 100 | 1010.6 |
| 20260509110217 | 50 | 209 | 5.2 | 8.7 | 0.00 | 0.09 | 0.01 | 100 | 1010.7 |
| 20260509105503 | 50 | 211 | 7.0 | 8.7 | 0.00 | 0.09 | 0.01 | 100 | 1010.5 |
| 20260509105003 | 50 | 205 | 4.3 | 10.4 | 0.00 | 0.09 | 0.01 | 100 | 1010.6 |
| 20260509104503 | 50 | 206 | 4.3 | 7.0 | 0.01 | 0.09 | 0.01 | 100 | 1010.5 |
| 20260509104216 | 50 | 212 | 5.2 | 8.7 | 0.01 | 0.09 | 0.01 | 100 | 1010.5 |
| 20260509103503 | 50 | 197 | 4.3 | 6.1 | 0.01 | 0.09 | 0.01 | 100 | 1010.6 |
| 20260509103003 | 50 | 193 | 3.5 | 4.3 | 0.01 | 0.09 | 0.01 | 100 | 1010.5 |
| 20260509102503 | 50 | 204 | 5.2 | 8.7 | 0.01 | 0.09 | 0.01 | 100 | 1010.5 |
| 20260509102004 | 49 | 200 | 3.5 | 7.0 | 0.01 | 0.09 | 0.01 | 100 | 1010.5 |
| 20260509101503 | 49 | 201 | 5.2 | 8.7 | 0.01 | 0.09 | 0.01 | 100 | 1010.5 |
| 20260509101003 | 49 | 199 | 4.3 | 6.1 | 0.01 | 0.09 | 0.01 | 100 | 1010.4 |
| 20260509100503 | 49 | 188 | 2.6 | 6.1 | 0.01 | 0.09 | 0.01 | 100 | 1010.5 |
| 20260509100004 | 49 | 197 | 3.5 | 4.3 | 0.01 | 0.09 | 0.01 | 100 | 1010.6 |
| 20260509095717 | 49 | 195 | 1.7 | 4.3 | 0.01 | 0.09 | 0.01 | 100 | 1010.7 |
| 20260509095216 | 49 | 197 | 2.6 | 6.1 | 0.01 | 0.09 | 0.01 | 100 | 1010.7 |
| 20260509094504 | 49 | 217 | 5.2 | 7.0 | 0.00 | 0.07 | 0.00 | 100 | 1010.9 |
| 20260509094003 | 49 | 200 | 4.3 | 6.1 | 0.00 | 0.07 | 0.00 | 100 | 1010.8 |
| 20260509093503 | 49 | 190 | 3.5 | 6.1 | 0.00 | 0.07 | 0.00 | 100 | 1010.8 |
| 20260509093003 | 49 | 194 | 6.1 | 8.7 | 0.00 | 0.07 | 0.00 | 100 | 1010.9 |
| 20260509092503 | 48 | 176 | 3.5 | 6.1 | 0.00 | 0.07 | 0.00 | 100 | 1010.8 |
| 20260509092003 | 48 | 173 | 4.3 | 6.1 | 0.00 | 0.07 | 0.00 | 100 | 1010.8 |
| 20260509091503 | 48 | 171 | 2.6 | 2.6 | 0.00 | 0.07 | 0.00 | 100 | 1011.0 |
| 20260509091003 | 48 | 177 | 3.5 | 4.3 | 0.00 | 0.07 | 0.00 | 100 | 1011.3 |
| 20260509090503 | 48 | 170 | 1.7 | 2.6 | 0.00 | 0.07 | 0.00 | 100 | 1010.9 |
| 20260509090003 | 48 | 176 | 2.6 | 4.3 | 0.00 | 0.07 | 0.00 | 100 | 1011.0 |
| 20260509085504 | 48 | 170 | 0.9 | 1.7 | 0.00 | 0.07 | 0.00 | 100 | 1010.9 |
| 20260509085003 | 48 | 170 | 1.7 | 2.6 | 0.00 | 0.07 | 0.00 | 100 | 1011.2 |
| 20260509084503 | 48 | 171 | 2.6 | 4.3 | 0.00 | 0.07 | 0.00 | 100 | 1011.2 |
| 20260509084003 | 48 | 168 | 2.6 | 2.6 | 0.00 | 0.07 | 0.00 | 100 | 1011.2 |
| 20260509083717 | 48 | 164 | 2.6 | 2.6 | 0.00 | 0.07 | 0.00 | 100 | 1011.2 |
| 20260509083003 | 48 | 153 | 1.7 | 1.7 | 0.00 | 0.07 | 0.00 | 100 | 1011.2 |
| 20260509082503 | 48 | 72 | 0.0 | 1.7 | 0.00 | 0.07 | 0.00 | 100 | 1011.3 |
| 20260509082004 | 48 | 0 | 0.0 | 0.0 | 0.00 | 0.07 | 0.00 | 100 | 1011.2 |
| 20260509081503 | 48 | 0 | 0.0 | 0.0 | 0.00 | 0.07 | 0.00 | 100 | 1011.3 |
| 20260509081218 | 48 | 0 | 0.0 | 0.0 | 0.00 | 0.07 | 0.00 | 100 | 1011.3 |
| 20260509080716 | 48 | 109 | 0.0 | 2.6 | 0.00 | 0.07 | 0.00 | 100 | 1011.1 |
| 20260509080003 | 48 | 154 | 1.7 | 1.7 | 0.00 | 0.07 | 0.00 | 100 | 1011.2 |
| 20260509075716 | 48 | 154 | 1.7 | 1.7 | 0.00 | 0.07 | 0.00 | 100 | 1011.2 |
| 20260509075003 | 48 | 132 | 0.9 | 1.7 | 0.00 | 0.07 | 0.00 | 100 | 1011.1 |
| 20260509074503 | 48 | 138 | 1.7 | 1.7 | 0.00 | 0.07 | 0.00 | 100 | 1011.2 |
| 20260509074003 | 48 | 0 | 0.0 | 0.0 | 0.00 | 0.07 | 0.00 | 100 | 1011.4 |
| 20260509073503 | 48 | 148 | 0.0 | 1.7 | 0.00 | 0.07 | 0.00 | 100 | 1011.3 |
| 20260509073003 | 48 | 148 | 0.9 | 1.7 | 0.00 | 0.07 | 0.00 | 100 | 1011.3 |
| 20260509072503 | 48 | 147 | 0.0 | 1.7 | 0.00 | 0.07 | 0.00 | 100 | 1011.3 |
| 20260509072003 | 48 | 147 | 0.0 | 1.7 | 0.00 | 0.07 | 0.00 | 100 | 1011.1 |
| 20260509071503 | 48 | 148 | 0.0 | 1.7 | 0.00 | 0.07 | 0.00 | 100 | 1011.3 |
| 20260509071003 | 48 | 145 | 0.9 | 1.7 | 0.00 | 0.07 | 0.00 | 100 | 1011.2 |
| 20260509070503 | 48 | 140 | 1.7 | 2.6 | 0.00 | 0.07 | 0.00 | 100 | 1011.2 |
| 20260509070003 | 48 | 135 | 1.7 | 2.6 | 0.00 | 0.07 | 0.00 | 100 | 1011.2 |
| 20260509065503 | 48 | 154 | 1.7 | 1.7 | 0.00 | 0.07 | 0.00 | 100 | 1011.4 |
| 20260509065003 | 48 | 153 | 1.7 | 2.6 | 0.00 | 0.07 | 0.00 | 100 | 1011.3 |
| 20260509064503 | 48 | 140 | 0.9 | 2.6 | 0.00 | 0.07 | 0.00 | 100 | 1011.4 |
| 20260509064003 | 48 | 120 | 0.9 | 6.1 | 0.00 | 0.07 | 0.00 | 100 | 1011.3 |
| 20260509063503 | 48 | 143 | 1.7 | 4.3 | 0.00 | 0.07 | 0.00 | 100 | 1011.5 |
| 20260509063003 | 48 | 137 | 1.7 | 6.1 | 0.00 | 0.07 | 0.00 | 100 | 1011.3 |
| 20260509062503 | 48 | 120 | 3.5 | 6.1 | 0.00 | 0.07 | 0.00 | 100 | 1011.3 |
| 20260509062003 | 48 | 120 | 2.6 | 4.3 | 0.00 | 0.07 | 0.00 | 100 | 1011.4 |
| 20260509061718 | 48 | 121 | 1.7 | 4.3 | 0.00 | 0.07 | 0.00 | 100 | 1011.4 |
| 20260509061217 | 48 | 129 | 2.6 | 2.6 | 0.00 | 0.07 | 0.00 | 100 | 1011.4 |
| 20260509060503 | 48 | 127 | 0.0 | 1.7 | 0.00 | 0.07 | 0.00 | 100 | 1011.7 |
| 20260509060217 | 48 | 93 | 0.0 | 2.6 | 0.00 | 0.07 | 0.00 | 100 | 1011.7 |
| 20260509055503 | 48 | 114 | 1.7 | 2.6 | 0.00 | 0.07 | 0.00 | 100 | 1011.7 |
| 20260509055219 | 48 | 107 | 1.7 | 2.6 | 0.00 | 0.07 | 0.00 | 100 | 1011.8 |
| 20260509054503 | 48 | 110 | 0.9 | 2.6 | 0.00 | 0.07 | 0.00 | 100 | 1012.1 |
| 20260509054003 | 48 | 109 | 0.9 | 4.3 | 0.00 | 0.07 | 0.00 | 100 | 1011.8 |
| 20260509053718 | 48 | 113 | 0.9 | 1.7 | 0.00 | 0.07 | 0.00 | 100 | 1011.8 |
| 20260509053003 | 48 | 114 | 1.7 | 2.6 | 0.00 | 0.07 | 0.00 | 100 | 1012.2 |
| 20260509052503 | 48 | 111 | 0.9 | 2.6 | 0.00 | 0.07 | 0.00 | 100 | 1011.9 |
| 20260509052003 | 48 | 119 | 1.7 | 2.6 | 0.00 | 0.07 | 0.00 | 100 | 1012.1 |
| 20260509051503 | 48 | 128 | 0.0 | 2.6 | 0.00 | 0.07 | 0.00 | 100 | 1012.0 |
| 20260509051003 | 48 | 117 | 1.7 | 2.6 | 0.00 | 0.07 | 0.00 | 100 | 1012.4 |
| 20260509050503 | 48 | 115 | 1.7 | 2.6 | 0.00 | 0.07 | 0.00 | 100 | 1012.3 |
| 20260509050216 | 48 | 113 | 1.7 | 4.3 | 0.00 | 0.07 | 0.00 | 100 | 1012.5 |
| 20260509045717 | 48 | 120 | 3.5 | 4.3 | 0.00 | 0.07 | 0.00 | 100 | 1012.1 |
| 20260509045003 | 48 | 107 | 3.5 | 6.1 | 0.00 | 0.07 | 0.00 | 100 | 1012.3 |
| 20260509044503 | 48 | 85 | 0.9 | 2.6 | 0.00 | 0.07 | 0.00 | 100 | 1012.3 |
| 20260509044003 | 48 | 79 | 2.6 | 6.1 | 0.00 | 0.07 | 0.00 | 100 | 1012.4 |
| 20260509043503 | 48 | 113 | 2.6 | 4.3 | 0.00 | 0.07 | 0.00 | 100 | 1012.4 |
| 20260509043003 | 48 | 109 | 3.5 | 6.1 | 0.00 | 0.07 | 0.00 | 100 | 1012.4 |
| 20260509042503 | 48 | 104 | 2.6 | 4.3 | 0.00 | 0.07 | 0.00 | 100 | 1012.7 |
| 20260509042004 | 48 | 111 | 3.5 | 4.3 | 0.01 | 0.07 | 0.00 | 100 | 1012.7 |
| 20260509041503 | 48 | 109 | 3.5 | 4.3 | 0.01 | 0.07 | 0.00 | 100 | 1012.7 |
| 20260509041003 | 49 | 116 | 1.7 | 4.3 | 0.01 | 0.07 | 0.00 | 100 | 1012.9 |
| 20260509040503 | 49 | 114 | 2.6 | 4.3 | 0.01 | 0.07 | 0.00 | 100 | 1013.0 |
| 20260509040003 | 49 | 113 | 2.6 | 4.3 | 0.01 | 0.07 | 0.00 | 100 | 1012.9 |
| 20260509035717 | 49 | 114 | 2.6 | 4.3 | 0.01 | 0.07 | 0.07 | 100 | 1013.0 |
| 20260509035003 | 49 | 113 | 2.6 | 4.3 | 0.01 | 0.07 | 0.07 | 100 | 1013.0 |
| 20260509034503 | 49 | 116 | 1.7 | 4.3 | 0.01 | 0.07 | 0.07 | 100 | 1013.3 |